STARLINK-36867

Last updated on Fri Mar 27 2026 00:02:06 GMT+0000 (Coordinated Universal Time)

1 67983U 26038Y 26085.17934375 .00064541 00000+0 11783-2 0 9993 2 67983 97.2868 96.0126 0002063 7.4616 352.6665 15.49197008 5769
UTC large
Height (km)
Speed (km/s)
/
Latitude / Longitude
Inclination (degrees)
Orbital Period (minutes)
Azimuth
Elevation
Range (km)
Doppler Factor

Next 0 passes for location: London (51.5072 / 0.1276)

Sorry there are no passes over London.